Location: Austin
(30.3000°N, 97.7500°W)
Time: 04:07:13
(UTC-06:00)

COSMOS 2428 - Pass Details

Date: 20 November 2023
Orbit: 843 x 858 km, 70.9° (Epoch: 04 December)

Event Time Altitude Azimuth Distance (km) Brightness Sun altitude
Rises 19:21:27 0° 329° (NNW) 3,430 6.1 -23.4°
Reaches altitude 10° 19:24:04 10° 321° (NW) 2,492 5.5 -24.0°
Maximum altitude 19:29:14 36° 256° (WSW) 1,326 4.2 -25.1°
Drops below altitude 10° 19:34:24 10° 192° (SSW) 2,481 5.3 -26.2°
Sets 19:37:01 0° 183° (S) 3,413 6.0 -26.7°
